| time (UTC) | temp F | wind direction | speed MPH | gust MPH | rain 1hr in | rain 24hr in | rain mn in | humidity % | barometer mb |
| 20260906233045 | 79 | 217 | 7.0 | 16.0 | 0.00 | 0.00 | 0.00 | 22 | 1013.2 |
| 20260906231546 | 79 | 195 | 10.0 | 24.0 | 0.00 | 0.00 | 0.00 | 22 | 1013.4 |
| 20260906230051 | 80 | 194 | 7.0 | 19.0 | 0.00 | 0.00 | 0.00 | 21 | 1013.5 |
| 20260906224552 | 80 | 211 | 11.0 | 23.0 | 0.00 | 0.00 | 0.00 | 20 | 1013.3 |
| 20260906223045 | 81 | 223 | 8.0 | 22.0 | 0.00 | 0.00 | 0.00 | 23 | 1013.6 |
| 20260906221553 | 81 | 144 | 9.0 | 17.0 | 0.00 | 0.00 | 0.00 | 22 | 1013.7 |
| 20260906220046 | 82 | 193 | 9.0 | 19.0 | 0.00 | 0.00 | 0.00 | 20 | 1013.8 |
| 20260906214544 | 82 | 244 | 10.0 | 22.0 | 0.00 | 0.00 | 0.00 | 20 | 1013.7 |
| 20260906213043 | 82 | 209 | 6.0 | 19.0 | 0.00 | 0.00 | 0.00 | 20 | 1014.2 |
| 20260906211550 | 81 | 131 | 7.0 | 16.0 | 0.00 | 0.00 | 0.00 | 21 | 1013.9 |
| 20260906210045 | 80 | 227 | 10.0 | 25.0 | 0.00 | 0.00 | 0.00 | 18 | 1014.2 |
| 20260906204601 | 81 | 213 | 6.0 | 18.0 | 0.00 | 0.00 | 0.00 | 19 | 1014.5 |
| 20260906203041 | 82 | 211 | 8.0 | 21.0 | 0.00 | 0.00 | 0.00 | 18 | 1014.5 |
| 20260906201603 | 83 | 258 | 9.0 | 18.0 | 0.00 | 0.00 | 0.00 | 18 | 1014.5 |
| 20260906200043 | 82 | 198 | 8.0 | 19.0 | 0.00 | 0.00 | 0.00 | 19 | 1014.5 |
| 20260906194542 | 82 | 140 | 10.0 | 24.0 | 0.00 | 0.00 | 0.00 | 20 | 1014.6 |
| 20260906193050 | 82 | 194 | 6.0 | 22.0 | 0.00 | 0.00 | 0.00 | 19 | 1014.6 |
| 20260906191549 | 82 | 210 | 5.0 | 20.0 | 0.00 | 0.00 | 0.00 | 18 | 1014.8 |
| 20260906190043 | 81 | 212 | 7.0 | 19.0 | 0.00 | 0.00 | 0.00 | 19 | 1015.1 |
| 20260906184542 | 80 | 232 | 6.0 | 20.0 | 0.00 | 0.00 | 0.00 | 21 | 1015.5 |
| 20260906183046 | 80 | 186 | 8.0 | 21.0 | 0.00 | 0.00 | 0.00 | 21 | 1015.9 |
| 20260906181547 | 79 | 194 | 7.0 | 16.0 | 0.00 | 0.00 | 0.00 | 23 | 1016.1 |
| 20260906180058 | 79 | 155 | 6.0 | 16.0 | 0.00 | 0.00 | 0.00 | 24 | 1016.0 |
| 20260906174541 | 78 | 211 | 6.0 | 16.0 | 0.00 | 0.00 | 0.00 | 22 | 1016.4 |
| 20260906173044 | 78 | 244 | 8.0 | 18.0 | 0.00 | 0.00 | 0.00 | 23 | 1016.7 |
| 20260906171543 | 78 | 197 | 5.0 | 11.0 | 0.00 | 0.00 | 0.00 | 24 | 1016.8 |
| 20260906170042 | 76 | 230 | 8.0 | 17.0 | 0.00 | 0.00 | 0.00 | 24 | 1017.0 |
| 20260906164549 | 76 | 233 | 6.0 | 14.0 | 0.00 | 0.00 | 0.00 | 24 | 1017.0 |
| 20260906163044 | 74 | 182 | 6.0 | 11.0 | 0.00 | 0.00 | 0.00 | 26 | 1017.1 |
| 20260906161547 | 69 | 30 | 0.0 | 5.0 | 0.00 | 0.00 | 0.00 | 33 | 1017.1 |
| 20260906160050 | 66 | 24 | 3.0 | 5.0 | 0.00 | 0.00 | 0.00 | 39 | 1017.2 |
| 20260906154554 | 63 | 19 | 3.0 | 8.0 | 0.00 | 0.00 | 0.00 | 39 | 1017.3 |
| 20260906153051 | 61 | 91 | 4.0 | 8.0 | 0.00 | 0.00 | 0.00 | 43 | 1017.5 |
| 20260906151542 | 59 | 63 | 4.0 | 6.0 | 0.00 | 0.00 | 0.00 | 45 | 1017.5 |
| 20260906150055 | 56 | 49 | 0.0 | 4.0 | 0.00 | 0.00 | 0.00 | 52 | 1017.7 |
| 20260906144543 | 53 | 47 | 2.0 | 5.0 | 0.00 | 0.00 | 0.00 | 52 | 1017.6 |
| 20260906143046 | 50 | 58 | 1.0 | 4.0 | 0.00 | 0.00 | 0.00 | 56 | 1017.5 |
| 20260906141546 | 49 | 0 | 0.0 | 3.0 | 0.00 | 0.00 | 0.00 | 59 | 1017.5 |
| 20260906140044 | 47 | 0 | 0.0 | 3.0 | 0.00 | 0.00 | 0.00 | 60 | 1017.3 |
| 20260906134541 | 46 | 77 | 2.0 | 4.0 | 0.00 | 0.00 | 0.00 | 62 | 1017.1 |
| 20260906133042 | 47 | 77 | 0.0 | 6.0 | 0.00 | 0.00 | 0.00 | 58 | 1017.0 |
| 20260906131547 | 47 | 40 | 3.0 | 5.0 | 0.00 | 0.00 | 0.00 | 58 | 1016.8 |
| 20260906130050 | 46 | 80 | 2.0 | 4.0 | 0.00 | 0.00 | 0.00 | 59 | 1016.7 |
| 20260906124542 | 47 | 0 | 0.0 | 2.0 | 0.00 | 0.00 | 0.00 | 57 | 1016.6 |
| 20260906123044 | 47 | 91 | 2.0 | 5.0 | 0.00 | 0.00 | 0.00 | 56 | 1016.5 |
| 20260906121545 | 48 | 78 | 2.0 | 7.0 | 0.00 | 0.00 | 0.00 | 55 | 1016.5 |
| 20260906120043 | 49 | 66 | 3.0 | 6.0 | 0.00 | 0.00 | 0.00 | 54 | 1016.5 |
| 20260906114556 | 49 | 0 | 2.0 | 5.0 | 0.00 | 0.00 | 0.00 | 53 | 1016.5 |
| 20260906113050 | 50 | 89 | 3.0 | 8.0 | 0.00 | 0.00 | 0.00 | 51 | 1016.4 |
| 20260906111549 | 51 | 51 | 4.0 | 9.0 | 0.00 | 0.00 | 0.00 | 50 | 1016.5 |
| 20260906110041 | 52 | 85 | 4.0 | 9.0 | 0.00 | 0.00 | 0.00 | 49 | 1016.4 |
| 20260906104547 | 51 | 68 | 6.0 | 11.0 | 0.00 | 0.00 | 0.00 | 49 | 1016.0 |
| 20260906103049 | 52 | 68 | 4.0 | 10.0 | 0.00 | 0.00 | 0.00 | 49 | 1016.1 |
| 20260906101543 | 52 | 83 | 7.0 | 13.0 | 0.00 | 0.00 | 0.00 | 48 | 1015.9 |
| 20260906100055 | 52 | 69 | 6.0 | 10.0 | 0.00 | 0.00 | 0.00 | 49 | 1015.9 |
| 20260906094551 | 52 | 66 | 7.0 | 12.0 | 0.00 | 0.00 | 0.00 | 48 | 1015.7 |
| 20260906093043 | 52 | 85 | 7.0 | 10.0 | 0.00 | 0.00 | 0.00 | 49 | 1015.5 |
| 20260906091543 | 52 | 78 | 7.0 | 10.0 | 0.00 | 0.00 | 0.00 | 49 | 1015.6 |
| 20260906090044 | 52 | 106 | 2.0 | 6.0 | 0.00 | 0.00 | 0.00 | 48 | 1015.7 |
| 20260906084547 | 52 | 57 | 7.0 | 10.0 | 0.00 | 0.00 | 0.00 | 49 | 1015.6 |
| 20260906083043 | 52 | 65 | 4.0 | 8.0 | 0.00 | 0.00 | 0.00 | 49 | 1015.8 |
| 20260906081543 | 52 | 103 | 5.0 | 9.0 | 0.00 | 0.00 | 0.00 | 47 | 1015.6 |
| 20260906080052 | 53 | 82 | 7.0 | 8.0 | 0.00 | 0.00 | 0.00 | 50 | 1015.6 |
| 20260906074551 | 54 | 86 | 5.0 | 8.0 | 0.00 | 0.00 | 0.00 | 49 | 1015.6 |
| 20260906073044 | 54 | 126 | 6.0 | 8.0 | 0.00 | 0.00 | 0.00 | 45 | 1015.7 |
| 20260906071543 | 55 | 96 | 6.0 | 10.0 | 0.00 | 0.00 | 0.00 | 44 | 1015.6 |
| 20260906070047 | 55 | 89 | 5.0 | 11.0 | 0.00 | 0.00 | 0.00 | 47 | 1015.4 |
| 20260906064543 | 55 | 98 | 6.0 | 9.0 | 0.00 | 0.00 | 0.00 | 45 | 1015.2 |
| 20260906063046 | 55 | 111 | 7.0 | 9.0 | 0.00 | 0.00 | 0.00 | 45 | 1015.2 |
| 20260906061542 | 56 | 113 | 4.0 | 9.0 | 0.00 | 0.00 | 0.00 | 44 | 1015.2 |
| 20260906060047 | 57 | 109 | 5.0 | 9.0 | 0.00 | 0.00 | 0.00 | 43 | 1015.2 |
| 20260906054601 | 58 | 112 | 5.0 | 10.0 | 0.00 | 0.00 | 0.00 | 40 | 1015.4 |
| 20260906053041 | 57 | 92 | 4.0 | 7.0 | 0.00 | 0.00 | 0.00 | 41 | 1015.5 |
| 20260906051544 | 58 | 96 | 6.0 | 9.0 | 0.00 | 0.00 | 0.00 | 41 | 1015.6 |
| 20260906050045 | 59 | 89 | 4.0 | 9.0 | 0.00 | 0.00 | 0.00 | 40 | 1015.7 |
| 20260906044541 | 60 | 89 | 3.0 | 8.0 | 0.00 | 0.00 | 0.00 | 37 | 1015.8 |
| 20260906043045 | 61 | 82 | 6.0 | 9.0 | 0.00 | 0.00 | 0.00 | 35 | 1015.9 |
| 20260906041542 | 62 | 0 | 0.0 | 4.0 | 0.00 | 0.00 | 0.00 | 34 | 1016.0 |
| 20260906040048 | 63 | 99 | 3.0 | 6.0 | 0.00 | 0.00 | 0.00 | 33 | 1015.9 |
| 20260906034552 | 64 | 76 | 4.0 | 7.0 | 0.00 | 0.00 | 0.00 | 33 | 1016.0 |
| 20260906033045 | 65 | 108 | 10.0 | 16.0 | 0.00 | 0.00 | 0.00 | 32 | 1015.9 |
| 20260906031605 | 67 | 94 | 4.0 | 8.0 | 0.00 | 0.00 | 0.00 | 32 | 1016.0 |
| 20260906030042 | 68 | 146 | 5.0 | 9.0 | 0.00 | 0.00 | 0.00 | 27 | 1015.9 |
| 20260906024557 | 68 | 152 | 7.0 | 11.0 | 0.00 | 0.00 | 0.00 | 26 | 1015.9 |
| 20260906023046 | 70 | 144 | 4.0 | 8.0 | 0.00 | 0.00 | 0.00 | 25 | 1015.6 |
| 20260906021542 | 71 | 161 | 2.0 | 5.0 | 0.00 | 0.00 | 0.00 | 24 | 1015.4 |
| 20260906020047 | 73 | 180 | 2.0 | 6.0 | 0.00 | 0.00 | 0.00 | 23 | 1015.5 |
| 20260906014543 | 75 | 181 | 3.0 | 7.0 | 0.00 | 0.00 | 0.00 | 22 | 1015.6 |
| 20260906013041 | 77 | 202 | 3.0 | 6.0 | 0.00 | 0.00 | 0.00 | 21 | 1015.8 |
| 20260906011542 | 79 | 171 | 5.0 | 11.0 | 0.00 | 0.00 | 0.00 | 19 | 1015.7 |
| 20260906010052 | 79 | 220 | 2.0 | 11.0 | 0.00 | 0.00 | 0.00 | 20 | 1015.7 |
| 20260906004544 | 80 | 197 | 4.0 | 11.0 | 0.00 | 0.00 | 0.00 | 18 | 1015.6 |
| 20260906003045 | 81 | 132 | 8.0 | 14.0 | 0.00 | 0.00 | 0.00 | 17 | 1015.6 |
| 20260906001544 | 81 | 236 | 3.0 | 16.0 | 0.00 | 0.00 | 0.00 | 18 | 1015.6 |
| 20260906000055 | 82 | 228 | 3.0 | 14.0 | 0.00 | 0.00 | 0.00 | 18 | 1015.6 |
| 20260905234550 | 82 | 198 | 5.0 | 16.0 | 0.00 | 0.00 | 0.00 | 17 | 1015.8 |